This demonstration page uses our WeatherBlox Daily Observations layout. Learn more.

Left ArrowRight Arrow

Hourly Observations for April 17, 2015

Temp ( °F °C ) Dew Point ( °F °C ) Humidity (%) Winds ( mph kmh ) Pressure ( in mb ) Visibility ( mi km ) Precip ( " mm )
12:16 am 00:16 Clear 55 13 N/A N/A NNW 3 6 30.12 1020 4 6.43736 N/A
12:36 am 00:36 Clear 54 12 N/A N/A Calm 30.12 1020 3 4.82802 N/A
12:56 am 00:56 Clear 54 12 N/A N/A Calm 30.12 1020 2.5 4.02335 N/A
1:16 am 01:16 Mostly Cloudy 52 11 N/A N/A N 3 6 30.12 1020 0.5 0.80467 N/A
1:36 am 01:36 Mostly Cloudy 50 10 N/A N/A Calm 30.12 1020 0.25 0.402335 N/A
1:56 am 01:56 Mostly Cloudy 52 11 N/A N/A Calm 30.12 1020 0.25 0.402335 N/A
2:16 am 02:16 Mostly Cloudy 52 11 N/A N/A Calm 30.15 1021 0.25 0.402335 N/A
2:36 am 02:36 Mostly Cloudy 50 10 N/A N/A Calm 30.15 1021 0.25 0.402335 N/A
2:56 am 02:56 Mostly Cloudy 50 10 N/A N/A Calm 30.15 1021 5 8.0467 N/A
3:16 am 03:16 Mostly Cloudy 50 10 N/A N/A WSW 3 6 30.15 1021 5 8.0467 N/A
3:35 am 03:35 Mostly Cloudy 50 10 N/A N/A W 3 6 30.15 1021 5 8.0467 N/A
3:56 am 03:56 Cloudy 50 10 N/A N/A Calm 30.15 1021 0.25 0.402335 N/A
4:16 am 04:16 Cloudy 48 9 N/A N/A Calm 30.15 1021 5 8.0467 N/A
4:35 am 04:35 Cloudy 48 9 N/A N/A Calm 30.15 1021 5 8.0467 N/A
4:56 am 04:56 Cloudy 48 9 N/A N/A Calm 30.15 1021 5 8.0467 N/A
5:16 am 05:16 Cloudy 46 8 N/A N/A Calm 30.15 1021 0.25 0.402335 N/A
5:35 am 05:35 Cloudy 46 8 N/A N/A Calm 30.15 1021 0.25 0.402335 N/A
5:56 am 05:56 Cloudy 46 8 N/A N/A NNE 3 6 30.12 1020 0.25 0.402335 N/A
6:16 am 06:16 Cloudy 46 8 N/A N/A NE 3 6 30.12 1020 5 8.0467 N/A
6:35 am 06:35 Cloudy 46 8 N/A N/A Calm 30.12 1020 0.25 0.402335 N/A
6:56 am 06:56 Cloudy 46 8 N/A N/A Calm 30.12 1020 5 8.0467 N/A
7:16 am 07:16 Cloudy 46 8 N/A N/A Calm 30.15 1021 0.25 0.402335 N/A
7:36 am 07:36 Cloudy 48 9 N/A N/A Calm 30.15 1021 5 8.0467 N/A
7:56 am 07:56 Cloudy 48 9 N/A N/A Calm 30.15 1021 5 8.0467 N/A
8:15 am 08:15 Cloudy 48 9 N/A N/A Calm 30.18 1022 0.25 0.402335 N/A
8:36 am 08:36 Cloudy 50 10 N/A N/A Calm 30.15 1021 1.25 2.011675 N/A
8:56 am 08:56 Mostly Cloudy 52 11 N/A N/A Calm 30.18 1022 5 8.0467 N/A
9:15 am 09:15 Partly Cloudy 54 12 N/A N/A Calm 30.15 1021 5 8.0467 N/A
9:36 am 09:36 Sunny 55 13 N/A N/A Calm 30.15 1021 5 8.0467 N/A
9:55 am 09:55 Sunny 57 14 N/A N/A Calm 30.15 1021 7 11.26538 N/A
10:16 am 10:16 Sunny 61 16 N/A N/A Calm 30.15 1021 10 16.0934 N/A
10:36 am 10:36 Sunny 63 17 52 11 68 68 N 3 6 30.15 1021 10 16.0934 N/A
10:56 am 10:56 Sunny 64 18 46 8 52 52 N 5 7 30.15 1021 10 16.0934 N/A
11:16 am 11:16 Sunny 66 19 45 7 46 46 N 7 11 30.15 1021 10 16.0934 N/A
11:36 am 11:36 Sunny 68 20 37 3 33 33 N 5 7 30.15 1021 10 16.0934 N/A
11:56 am 11:56 Sunny 70 21 37 3 31 31 N 5 7 30.12 1020 10 16.0934 N/A
12:16 pm 12:16 Sunny 70 21 32 0 25 25 Calm 30.12 1020 10 16.0934 N/A
12:36 pm 12:36 Sunny 72 22 30 -1 22 22 NNE 3 6 30.09 1019 10 16.0934 N/A
12:56 pm 12:56 Sunny 72 22 21 -6 15 15 ENE 3 6 30.09 1019 10 16.0934 N/A
1:16 pm 13:16 Sunny 72 22 27 -3 19 19 NE 7 11 30.09 1019 10 16.0934 N/A
1:35 pm 13:35 Sunny 72 22 23 -5 16 16 Calm 30.09 1019 10 16.0934 N/A
1:56 pm 13:56 Sunny 72 22 25 -4 17 17 E 5 7 30.06 1018 10 16.0934 N/A
2:16 pm 14:16 Sunny 73 23 23 -5 15 15 E 5 7 30.06 1018 2 3.21868 N/A
2:35 pm 14:35 Sunny 73 23 21 -6 14 14 SSE 5 7 30.06 1018 10 16.0934 N/A
2:56 pm 14:56 Sunny 73 23 21 -6 14 14 Calm 30.06 1018 10 16.0934 N/A
3:16 pm 15:16 Sunny 73 23 19 -7 13 13 Calm 30.03 1017 10 16.0934 N/A
3:35 pm 15:35 Sunny 73 23 14 -10 10 10 Calm 30.03 1017 10 16.0934 N/A
3:56 pm 15:56 Sunny 75 24 14 -10 10 10 ESE 5 7 30.03 1017 10 16.0934 N/A
4:16 pm 16:16 Sunny 73 23 21 -6 14 14 ENE 6 9 30.03 1017 4 6.43736 N/A
4:35 pm 16:35 Sunny 75 24 18 -8 11 11 Calm 30.03 1017 10 16.0934 N/A
4:56 pm 16:56 Sunny 75 24 16 -9 10 10 Calm 30.03 1017 10 16.0934 N/A
5:16 pm 17:16 Sunny 75 24 16 -9 10 10 Calm 30 1016 10 16.0934 N/A
5:36 pm 17:36 Sunny 75 24 14 -10 10 10 Calm 30 1016 10 16.0934 N/A
5:56 pm 17:56 Sunny 75 24 16 -9 10 10 Calm 30 1016 10 16.0934 N/A
6:15 pm 18:15 Sunny 75 24 12 -11 9 9 Calm 30 1016 10 16.0934 N/A
6:36 pm 18:36 Sunny 73 23 25 -4 16 16 N 5 7 30 1016 10 16.0934 N/A
6:56 pm 18:56 Sunny 73 23 23 -5 15 15 N 6 9 30 1016 10 16.0934 N/A
7:15 pm 19:15 Sunny 72 22 27 -3 19 19 N 3 6 30 1016 10 16.0934 N/A
7:36 pm 19:36 Sunny 70 21 32 0 25 25 N 5 7 30 1016 10 16.0934 N/A
7:56 pm 19:56 Sunny 68 20 34 1 28 28 N 6 9 30.03 1017 10 16.0934 N/A
8:15 pm 20:15 Sunny 66 19 36 2 32 32 N 7 11 30.03 1017 10 16.0934 N/A
8:36 pm 20:36 Clear 64 18 34 1 32 32 NNE 7 11 30.03 1017 10 16.0934 N/A
8:56 pm 20:56 Clear 61 16 37 3 42 42 NE 3 6 30.03 1017 10 16.0934 N/A
9:16 pm 21:16 Clear 64 18 30 -1 28 28 NNE 5 7 30.03 1017 10 16.0934 N/A
9:36 pm 21:36 Clear 63 17 34 1 34 34 NE 5 7 30.06 1018 10 16.0934 N/A
9:56 pm 21:56 Clear 59 15 37 3 45 45 Calm 30.06 1018 10 16.0934 N/A
10:16 pm 22:16 Clear 59 15 43 6 55 55 Calm 30.06 1018 10 16.0934 N/A
10:36 pm 22:36 Clear 59 15 39 4 48 48 Calm 30.06 1018 10 16.0934 N/A
10:56 pm 22:56 Clear 57 14 39 4 51 51 Calm 30.06 1018 10 16.0934 N/A
11:16 pm 23:16 Clear 57 14 39 4 51 51 Calm 30.06 1018 10 16.0934 N/A
11:36 pm 23:36 Clear 57 14 37 3 48 48 Calm 30.06 1018 10 16.0934 N/A
11:55 pm 23:55 Clear 55 13 39 4 55 55 Calm 30.06 1018 10 16.0934 N/A

Powered by AerisWeather